Tracking 21496 objects as of 1-Oct-2020
HD Live streaming from Space Station
objects crossing your sky now

OPS 3151

Track OPS 3151 now!
OPS 3151 is classified as:


NORAD ID: 9803
Int'l Code: 1977-007A
Perigee: 36,227.3 km
Apogee: 36,933.1 km
Inclination: 9.9 °
Period: 1,476.5 minutes
Semi major axis: 42951 km
RCS: Unknown
Launch date: February 6, 1977
Source: United States (US)
Launch site: AIR FORCE EASTERN TEST RANGE (AFETR)
aabbcc
Your satellite tracking list
Your tracking list is empty




NASA's NSSDC Master Catalog

Two Line Element Set (TLE):
1  9803U 77007A   20274.52595451 -.00000144 +00000-0 +00000-0 0  9992
2  9803 009.8990 305.8327 0082166 345.8383 029.4361 00.97530521004317
Source of the keplerian elements: McCants